map of KVES home
Great Circle Mapper logo
KVES - Airport
Location
City:  Versailles, Ohio, United States
Name:Darke County Airport
ICAO:KVES
FAA:VES

Details
Type:Airport (Airfield)
Use:Public/Civil
Latitude:4012'16"N (40.204417)
Longitude:8431'55"W (-84.531916)
Datum:WGS 1984
Elevation:1007 ft (307 m)
Variation:5.9W (WMM2015 magnetic declination)
Runways:1
Longest:4512 × 75 ft (1375 × 23 m), paved

Time
Time Zone:UTC-5 (DST-4)
Local Time:

Weather
METAR:KVES 190315Z AUTO 29004KT 10SM OVC015 M02/M03 A3022 RMK AO2

Related Locations
Nearby:
Farthest:MGV: 11276 mi / 18148 km
Margaret River, WA, AU

Find:

   beyond  
but within

Other Information
Maps:
NOTAMs:
Links:
Sources:

  
flag of United States
flag of Ohio
  

Sectional Chart

Flight Planning
at skyvector.com

Satellite Image

Google Maps Satellite View

 

Copyright © 2004-2014 Karl L. Swartz. All rights reserved.
The Great Circle Mapper name and logo are trademarks of the Great Circle Mapper.
All other trademarks mentioned herein belong to their respective owners.
Please see credits for attibutions and further copyright information.

  Follow gcmap on Facebook Follow gcmap on Twitter

hCard Microformat

Geo Microformat